Location: Castelbiague
(43.0361°N, 0.9246°E)
Time: 09:37:22
(UTC+00:00)

NOSS 0 Rocket - Pass Details

Date: 17 June 2021
Orbit: 934 x 956 km, 70.0° (Epoch: 27 July)

Event Time Altitude Azimuth Distance (km) Brightness Sun altitude
Exits shadow 22:16:43 34° 145° (SE) 1,507 4.4 -19.6°
Maximum altitude 22:18:29 42° 107° (ESE) 1,330 4.4 -19.8°
Drops below altitude 10° 22:24:16 10° 39° (NE) 2,683 6.7 -20.2°
Sets 22:26:56 0° 33° (NNE) 3,636 7.5 -20.4°
